Location: Carrer del Canonge
(41.4901°N, 2.2931°E)
Time: 14:30:35
(UTC+00:00)

USA 186 - Pass Details

Date: 18 September 2020
Orbit: 261 x 425 km, 96.9° (Epoch: 12 October)

Event Time Altitude Azimuth Distance (km) Brightness Sun altitude
Exits shadow 18:49:23 18° 103° (ESE) 1,059 3.1 -11.0°
Maximum altitude 18:50:34 22° 70° (ENE) 928 3.0 -11.3°
Drops below altitude 10° 18:53:07 10° 17° (NNE) 1,490 4.5 -11.7°
Sets 18:55:26 0° 2° (N) 2,379 5.7 -12.2°
